Lapse_Rate
0.3 0.1 1.7 4.9 5.4 5.6 5.2 6.4 6.5 5.2 3.8 3.9 4.1 3.8 2.9 2.9 3.8 4.0 4.6 4.3 4.6 5.0 4.9 5.4 5.5 5.6 5.9 5.9 6.4 7.1 6.1 6.2 6.1 7.9 5.4 4.1 4.7 4.4 4.6 3.9 5.6 5.4 5.8
1.3 0.1 0.3 0.9 4.8 4.3 4.4 3.8 3.9 4.0 4.4 4.8 3.8 3.1 2.8 4.0 4.2 4.0 4.3 4.4 5.1 5.8 6.1 5.8 5.4 5.1 5.9 6.5 6.2 5.8 6.1 5.9 6.5 6.3 4.9 4.4 4.4 4.2 4.7 5.1 5.6 5.7 6.6
1.2 0.3 -0.7 -0.5 0.7 4.4 3.8 3.2 3.0 3.0 2.4 2.4 3.2 3.5 3.8 4.0 3.9 3.8 4.5 4.5 5.0 5.4 5.6 5.7 6.8 6.8 6.2 5.5 5.7 5.5 5.3 5.7 5.5 6.0 4.9 4.5 4.0 4.2 4.2 4.1 5.2 5.6 3.3
1.3 -0.3 -0.4 -1.4 -0.8 0.3 3.3 3.3 3.6 3.4 3.4 3.6 3.6 3.4 3.3 2.7 2.2 2.7 3.3 3.8 4.1 4.7 5.0 5.5 5.7 5.9 5.8 6.1 5.8 5.8 5.5 5.2 5.2 5.2 5.4 4.5 4.4 3.6 4.7 4.3 2.8 1.4 1.0
1.6 -0.7 -0.5 -0.5 -1.9 -1.5 -1.8 -1.1 -0.5 -0.7 -0.6 -0.1 1.8 1.1 0.4 -1.3 -2.3 -1.6 1.3 3.0 4.3 4.7 4.3 4.9 5.9 6.2 3.8 4.4 6.1 6.0 5.5 5.1 5.3 5.2 5.9 5.7 5.3 4.6 4.8 4.5 3.2 0.0 -0.5
2.3 1.7 1.1 0.9 -0.4 -3.0 -2.6 -2.6 -2.1 -2.2 -2.2 -2.3 -2.3 -2.6 -2.7 -1.5 -3.3 -2.9 -2.1 1.7 3.3 3.2 2.9 2.8 3.4 1.9 1.8 0.3 0.6 1.3 4.5 5.2 5.5 5.7 5.5 5.6 5.8 5.3 4.9 4.6 2.4 1.3 2.3
1.5 1.1 0.5 1.1 1.3 -0.2 0.6 -1.0 -3.0 -3.2 -3.6 -4.6 -3.4 -2.9 -2.8 -3.1 -3.2 -2.9 -2.8 0.5 0.6 -0.3 -0.6 -0.7 0.1 0.8 -1.8 0.1 -2.4 -2.3 -1.6 -1.1 2.8 5.4 5.5 5.8 6.0 5.6 5.0 4.9 3.2 3.0 2.2
2.6 2.0 0.8 1.1 1.1 -0.4 -0.1 -0.1 -0.5 -0.4 -2.8 -2.7 -3.2 -3.1 -2.9 -3.3 -3.7 -3.6 -2.8 -1.9 -2.3 -2.8 -3.2 -2.8 -2.2 -2.2 -2.4 -2.0 -2.8 -4.0 -4.7 -4.9 -4.4 -2.8 2.8 0.2 -0.1 4.6 4.9 4.8 4.0 -1.4 -3.6
1.6 1.5 1.6 1.2 1.0 1.3 1.6 0.6 1.1 1.2 0.4 -0.1 0.3 -0.4 -1.7 -2.7 -2.6 -2.2 -2.2 -1.7 -2.3 -2.9 -3.1 -3.3 -3.3 -2.9 -3.9 -2.9 -2.9 -4.3 -3.9 -5.0 -5.2 -5.0 -4.8 -4.7 -4.8 -4.3 -2.3 1.3 0.7 1.5 -2.6
2.5 2.2 2.2 2.6 2.8 2.8 2.7 3.3 3.0 2.5 1.6 1.4 1.1 1.0 0.7 0.1 0.6 -0.1 -2.0 -1.2 -1.1 -2.0 -2.5 -2.5 -3.2 -3.1 -3.4 -2.6 -1.4 -1.3 -2.1 -2.9 -2.8 -3.5 -4.8 -5.1 -5.4 -5.3 -5.0 -4.9 -0.9 2.2 -2.9
2.6 2.3 1.5 1.8 2.4 3.0 3.6 3.3 4.0 3.6 3.3 2.4 2.1 2.1 1.7 0.8 0.7 0.0 0.8 -0.7 -0.7 -0.9 -1.9 -2.4 -2.2 -1.3 -2.5 -2.0 -2.1 -2.2 -2.6 -2.8 -3.5 -3.6 -3.6 -4.0 -5.1 -6.5 -6.7 -6.5 -5.6 -3.5 -3.4
2.3 1.8 1.8 1.8 2.0 2.4 2.8 3.4 3.2 3.4 3.7 3.9 4.2 4.6 4.2 2.7 2.2 1.9 0.6 0.5 0.9 0.1 -0.7 -0.4 0.1 0.0 -0.8 -1.5 -2.0 -1.7 -1.3 -1.0 -2.2 -4.4 -4.7 -5.5 -5.6 -5.5 -6.4 -6.1 -6.2 -5.2 -4.5
1.5 1.2 1.3 1.7 2.0 2.0 1.9 2.5 2.7 2.8 3.1 3.3 3.5 3.6 4.1 4.6 4.3 3.3 2.3 1.3 0.3 0.6 0.7 1.1 1.2 0.8 0.3 -0.6 0.3 0.3 0.0 -0.2 -0.5 -1.8 -1.5 -1.2 -1.6 -2.0 -2.6 -2.5 -2.7 -2.9 -3.0
1.2 1.1 1.3 0.8 1.4 1.6 2.5 3.0 2.9 3.5 3.6 3.4 3.3 3.7 4.1 3.7 3.7 3.8 3.6 2.8 2.6 1.7 1.1 0.5 0.4 0.6 0.1 -0.1 -0.2 -0.3 0.3 0.4 0.1 0.4 0.7 1.0 1.4 1.2 0.3 0.1 -0.5 -0.1 -0.6
2.3 2.3 2.3 2.8 2.3 2.6 2.8 3.8 4.4 4.4 4.5 4.2 4.7 4.7 4.8 5.0 4.8 3.8 3.2 3.1 3.2 2.4 2.6 2.0 1.0 1.0 0.8 0.7 0.6 0.4 1.0 1.6 1.6 2.1 2.2 2.4 2.1 1.8 1.6 1.8 1.8 1.2 0.8
3.1 3.4 2.7 3.1 3.2 3.5 3.9 4.3 3.7 3.9 4.0 3.8 4.3 4.1 4.3 4.8 5.0 4.1 3.4 3.1 2.6 2.6 1.9 1.8 1.9 1.4 1.3 1.6 1.3 1.6 1.2 1.7 2.6 2.9 3.0 3.2 3.3 3.5 3.3 3.1 3.5 3.7 3.4
3.4 3.9 4.0 3.7 3.8 3.5 3.5 3.5 3.4 4.0 3.0 2.4 2.5 3.3 3.6 3.5 3.8 3.9 3.5 3.3 2.6 3.2 2.0 2.4 2.5 2.4 2.3 1.9 1.8 1.6 1.7 1.9 2.5 2.8 3.2 3.9 4.3 4.6 5.4 5.2 4.0 3.5 3.0
3.6 1.7 3.7 3.9 3.8 3.7 3.8 3.8 3.6 3.1 2.8 2.6 2.6 2.3 2.6 3.4 3.7 3.2 3.4 4.4 3.1 2.8 3.1 3.2 3.3 3.6 3.3 2.8 2.6 2.4 2.1 2.2 2.3 2.6 3.0 3.5 4.2 4.5 4.5 4.5 4.6 4.1 4.0
4.7 4.2 4.1 4.1 3.6 3.6 4.4 4.3 4.1 4.1 3.9 3.7 3.5 3.2 2.5 3.5 3.7 2.7 2.8 2.6 3.4 3.8 4.5 4.4 4.4 4.3 4.0 3.7 3.0 3.0 2.8 2.4 2.5 2.7 2.8 3.2 4.1 4.9 4.5 4.6 4.4 4.5 4.8
4.4 3.3 3.3 4.9 5.0 5.3 5.5 5.5 5.4 5.4 5.1 4.8 4.0 3.7 4.2 4.1 2.7 2.7 2.8 3.1 3.7 3.9 4.4 4.5 4.2 4.0 3.7 3.7 3.3 3.6 3.7 3.5 3.6 3.7 3.4 3.8 4.2 4.8 4.6 4.7 4.9 5.0 5.0
4.5 4.7 3.5 5.7 5.9 6.6 7.0 7.1 7.5 7.3 7.5 7.3 6.2 4.5 3.2 5.3 4.7 4.2 4.0 3.8 4.1 4.6 4.4 4.6 4.3 3.9 3.9 3.4 3.4 3.1 3.0 3.3 3.1 3.4 3.9 4.0 4.2 4.7 5.1 5.3 5.2 5.3 5.6
4.6 5.0 5.3 5.5 6.1 6.1 7.1 7.5 7.4 8.0 7.9 7.9 7.6 6.8 4.5 6.3 6.2 5.9 5.2 4.2 4.3 4.5 4.4 4.6 4.6 3.8 3.2 3.1 3.1 3.0 2.5 2.4 2.9 3.4 3.8 3.9 4.8 4.8 5.0 4.9 5.0 5.2 5.7
5.2 5.5 6.0 6.1 6.4 6.0 6.7 7.2 7.7 8.9 8.8 8.3 7.4 7.6 7.5 7.1 6.8 6.7 6.1 5.0 4.9 4.2 3.6 4.0 3.9 3.3 2.2 1.8 1.9 2.1 2.6 2.0 1.5 1.6 3.5 4.4 4.8 4.9 5.0 5.1 4.9 5.0 5.1
5.8 5.9 6.4 6.7 6.5 6.7 6.6 6.7 6.9 7.0 7.5 8.1 8.0 7.8 8.1 7.8 7.3 6.8 6.2 5.7 5.4 5.0 4.0 3.8 3.8 3.4 2.9 2.5 2.6 2.2 1.3 0.6 0.9 1.1 1.8 4.2 4.6 4.7 4.8 4.8 4.7 3.9 4.5
6.2 6.5 7.0 6.9 6.5 6.3 6.4 7.2 7.4 7.6 7.9 8.0 8.2 8.3 8.2 7.9 8.2 7.8 6.8 6.1 5.6 5.9 5.6 4.7 4.5 3.6 2.8 1.9 1.6 1.3 -0.2 -0.2 -0.2 -0.2 2.0 2.8 3.2 3.4 3.9 4.4 4.4 4.6 4.2
7.0 7.3 7.4 7.2 7.6 7.6 7.5 7.4 7.6 7.7 7.7 7.9 7.9 7.9 7.9 8.1 8.3 7.9 7.4 6.8 6.9 6.8 5.9 5.6 5.2 4.0 3.4 3.6 2.9 1.7 0.6 0.1 0.2 -0.0 1.4 2.9 3.8 4.1 4.4 4.2 3.8 5.0 4.7
Wind_Speed
16 14 13 3 8 9 9 10 13 10 10 12 13 14 11 10 10 10 8 8 10 9 8 10 11 11 9 9 9 11 10 10 10 9 7 6 12 13 12 22 23 23 23
15 14 13 12 5 5 4 5 6 7 8 9 9 9 8 9 9 9 7 6 8 10 12 12 13 8 12 13 10 13 12 12 11 13 8 7 9 14 15 15 11 21 20
16 15 15 15 13 4 6 7 6 7 6 6 8 9 8 6 5 4 4 4 4 4 7 10 14 15 14 12 13 12 12 11 12 9 6 5 6 7 10 10 12 10 7
16 17 16 16 14 14 10 9 9 7 6 5 7 7 6 8 8 6 3 0 3 6 9 12 13 13 12 14 15 14 13 13 13 12 8 7 7 5 10 10 6 5 8
18 19 17 16 16 15 16 14 13 15 13 14 13 13 12 13 9 9 6 3 4 6 9 11 13 17 18 18 11 15 16 13 11 12 10 8 8 5 12 9 8 7 5
16 17 17 16 17 18 16 15 15 14 14 15 16 15 16 10 18 16 10 5 3 5 7 9 11 12 11 19 19 21 17 15 16 12 12 13 16 13 11 10 8 6 4
19 18 17 18 13 17 15 16 17 14 16 18 15 15 14 15 21 17 14 6 4 6 7 8 9 8 10 8 3 1 3 10 20 16 17 15 16 16 15 15 11 10 5
19 19 19 17 15 17 15 18 16 12 16 14 15 14 14 15 25 19 10 9 8 9 11 13 10 10 11 4 6 7 8 11 7 2 9 5 3 13 17 15 13 7 6
21 20 19 18 19 17 16 16 12 10 13 14 12 14 15 17 27 23 13 9 9 11 11 14 13 11 14 8 7 8 7 10 16 22 22 20 23 20 9 10 9 10 3
18 17 17 17 17 16 15 13 12 11 13 11 13 13 19 15 27 27 19 8 11 8 10 13 24 17 19 17 7 6 9 5 6 7 8 14 17 17 23 10 2 12 5
15 15 17 18 17 16 15 14 12 13 12 13 14 13 14 17 18 27 26 12 8 8 10 10 11 25 25 24 21 11 8 6 6 8 9 9 11 13 10 10 12 6 4
14 14 16 15 13 12 15 13 14 13 14 14 13 12 12 13 23 23 25 22 16 10 9 8 10 23 28 28 18 22 20 11 7 10 10 10 10 10 11 12 15 16 18
13 14 14 14 14 14 15 15 12 13 12 11 11 11 11 11 11 21 22 20 19 9 8 15 22 23 24 19 29 26 16 8 8 11 10 10 9 8 10 11 15 22 23
14 14 12 13 13 14 12 12 12 12 11 11 11 11 9 10 11 10 9 9 12 10 10 10 13 13 17 15 14 14 10 10 9 9 9 8 8 8 9 8 9 9 11
12 12 12 11 12 11 12 12 11 13 14 10 10 9 10 10 11 15 13 9 8 9 8 9 10 10 10 10 9 10 9 9 9 9 8 8 8 8 8 7 9 9 9
13 11 11 10 10 9 9 8 19 20 23 23 23 16 10 17 17 18 19 18 17 15 10 10 10 10 10 9 9 8 9 10 8 8 7 7 8 8 8 8 8 8 9
12 11 9 10 10 10 10 9 9 11 18 22 23 22 22 20 20 16 15 19 20 13 10 9 9 9 8 8 8 8 8 7 8 7 7 7 7 7 7 7 7 8 8
10 10 8 8 8 8 8 8 8 9 9 10 16 18 20 20 21 21 15 11 10 13 9 9 8 8 8 7 7 7 6 6 7 7 7 7 6 6 6 6 6 7 7
8 7 7 7 7 7 7 8 8 8 8 8 8 11 14 17 19 20 19 10 9 9 8 8 7 7 7 7 7 7 7 7 7 6 6 6 6 6 7 6 7 8 7
6 9 7 6 6 7 7 7 7 8 8 8 8 9 9 9 10 10 10 9 8 8 7 7 7 7 7 6 6 5 5 6 6 6 6 6 6 6 6 6 5 6 6
6 6 7 6 6 6 6 6 6 6 6 6 6 6 9 8 8 8 8 8 8 7 7 6 6 6 6 6 6 6 6 6 6 6 5 5 5 5 5 5 5 5 5
6 6 6 7 6 6 6 5 5 5 5 6 5 5 7 6 6 7 7 6 6 7 9 6 5 6 7 7 6 5 5 5 5 5 5 5 4 5 4 5 5 5 4
6 7 7 6 6 6 6 6 6 6 6 6 5 5 5 5 5 5 5 4 6 7 8 7 6 6 8 9 9 9 5 5 5 6 4 4 4 4 4 4 4 4 4
5 5 6 5 5 6 6 6 5 6 6 6 5 5 4 4 3 3 3 4 4 4 5 5 6 6 6 7 7 8 8 6 5 5 4 3 4 3 4 4 4 4 4
4 4 5 5 5 4 5 5 5 5 5 5 5 5 5 4 4 3 3 3 3 3 3 3 3 3 4 6 6 7 7 7 7 5 4 4 4 4 3 3 3 4 4
4 4 4 4 4 5 5 5 5 5 5 5 5 4 4 5 4 3 3 3 2 2 3 2 1 0 1 1 2 3 5 6 7 7 3 2 2 2 2 3 3 3 3
Wind_Direction
352 340 338 210 170 182 187 194 190 175 176 181 184 186 173 178 180 180 187 178 192 199 201 213 224 222 227 219 221 227 228 222 236 232 200 192 196 197 201 210 217 214 215
358 354 0 5 141 153 160 154 144 153 163 167 174 159 161 166 168 173 178 182 201 217 229 226 232 221 234 232 224 221 220 219 220 225 191 187 191 204 205 202 208 213 213
4 8 13 12 10 100 120 115 118 125 132 160 157 155 150 144 148 139 157 184 212 242 249 242 247 247 240 236 224 224 221 217 214 219 195 186 195 191 195 198 199 197 158
8 23 21 16 15 22 48 65 73 82 96 108 104 96 94 72 52 46 54 253 260 264 264 263 258 256 254 245 228 224 218 215 212 208 200 183 189 173 191 180 153 160 146
16 23 22 22 23 30 36 41 53 54 51 47 53 52 58 53 22 359 334 299 284 293 294 278 267 260 253 250 245 230 218 209 209 205 205 193 186 175 189 183 174 147 129
15 26 25 28 30 35 30 39 51 51 54 58 49 47 43 24 2 3 355 288 292 286 290 301 298 297 279 241 237 238 214 213 210 203 203 203 198 190 185 178 154 154 167
22 21 30 25 23 47 31 45 46 44 54 56 50 51 42 21 6 8 1 26 25 10 350 337 331 332 325 316 353 263 245 236 211 205 205 207 201 194 180 178 175 175 163
27 27 30 25 24 36 36 38 39 37 55 54 52 52 47 29 18 13 21 51 42 29 18 7 354 346 347 359 64 56 58 40 360 18 219 193 236 191 186 185 174 115 77
21 23 24 25 31 33 34 45 41 47 52 52 50 52 53 40 31 25 34 37 45 39 23 19 9 5 0 33 77 83 63 70 51 65 76 69 61 51 53 130 150 152 121
19 20 23 28 32 34 31 37 38 48 56 54 53 43 44 47 44 41 43 37 34 37 37 27 21 21 35 26 54 78 89 58 54 41 46 48 52 50 44 43 173 170 126
22 27 27 27 32 29 33 35 34 41 45 47 47 42 37 38 38 49 48 47 42 37 35 26 29 30 38 46 51 37 46 23 58 71 66 55 47 49 44 41 45 47 103
24 30 33 32 34 34 36 36 37 38 42 43 39 39 31 32 34 39 50 56 51 51 47 36 30 40 42 42 43 45 45 42 42 63 58 54 55 55 59 55 59 61 54
27 29 27 34 36 38 39 37 35 34 36 35 35 34 28 24 23 26 36 40 44 48 52 57 48 44 45 38 42 41 37 43 54 66 64 62 57 59 66 69 63 64 62
27 25 26 31 32 31 40 38 38 36 34 33 31 31 28 27 25 19 24 23 31 44 37 40 48 49 52 51 41 40 37 42 52 62 66 63 60 54 57 56 67 65 64
33 30 28 31 31 35 40 36 38 37 36 33 31 29 23 27 27 32 35 36 39 40 47 52 48 41 39 41 40 41 37 39 45 49 56 54 53 58 58 57 64 70 74
38 34 30 32 31 35 35 47 45 44 42 38 37 38 29 28 29 36 41 46 44 48 56 47 46 50 50 43 42 36 36 41 39 51 56 59 64 64 69 67 70 74 82
38 35 38 37 36 35 34 32 28 30 39 36 33 27 32 28 27 28 40 47 45 51 56 53 50 43 44 46 42 42 41 34 38 46 53 55 64 70 75 79 79 83 82
39 38 42 41 40 40 40 38 35 30 24 19 25 28 24 30 32 33 30 41 43 45 46 49 46 45 42 43 44 41 43 39 41 44 48 50 57 75 81 79 83 92 94
33 34 34 40 40 39 39 39 38 38 34 29 21 24 18 21 32 35 36 44 44 43 41 44 40 41 43 44 44 43 42 45 46 52 53 56 56 73 81 82 82 87 101
34 32 36 38 36 36 36 36 34 35 34 31 28 19 10 20 26 28 32 33 38 37 36 39 39 38 36 36 38 37 49 48 50 51 52 55 59 69 78 80 82 87 85
26 31 23 37 33 29 30 31 32 33 32 33 36 25 17 29 29 29 29 30 28 29 28 32 34 35 36 37 36 41 45 47 45 47 47 54 54 68 70 82 86 83 89
26 25 27 26 26 24 16 22 21 21 22 20 18 31 17 34 34 35 35 30 27 26 25 27 35 35 30 28 26 36 43 44 40 37 43 45 57 67 71 74 77 79 86
31 26 27 26 17 14 14 11 7 5 3 4 2 4 12 21 23 28 30 21 21 24 22 32 41 45 42 38 36 34 34 35 27 13 32 55 67 74 69 75 78 83 82
23 21 16 13 13 5 4 357 353 357 351 350 352 349 349 357 2 8 7 4 6 22 27 35 47 52 53 46 43 44 42 32 33 32 25 59 85 85 81 83 82 78 86
1 355 355 352 347 347 342 353 347 343 341 340 338 340 341 336 321 336 339 336 339 341 8 17 34 72 68 62 59 50 44 47 43 34 44 54 66 63 62 76 79 96 91
320 321 321 321 323 324 323 323 324 322 322 323 317 310 310 317 316 314 304 290 304 337 335 304 333 349 154 124 84 78 68 62 50 48 42 57 65 81 95 100 96 112 110